Regional Weather Roundup
Issued by NWS

Home | Current Version | Previous Version | Text Only | Print | Product List | Glossary Off
Versions: 1 2 3 4 5 6 7 8 9 10 11 12 13 14 15 16 17 18 19 20 21 22 23 24 25 26 27 28 29 30 31 32 33 34 35 36 37 38 39 40 41 42 43 44 45 46 47 48 49 50

000
ASUS43 KOAX 261902
RWRNE

WEATHER ROUNDUP FOR NEBRASKA
NATIONAL WEATHER SERVICE OMAHA NE
200 PM CDT FRI MAY 26 2017

NOTES: SATELLITE DATA IS BEING USED TO AUGMENT CLOUD COVER ABOVE
       12000 FEET.
       "FAIR" INDICATES FEW OR NO CLOUDS BELOW 12,000 FEET WITH NO
       SIGNIFICANT WEATHER AND/OR OBSTRUCTIONS TO VISIBILITY.

  * THESE STATIONS DO NOT REPORT WEATHER SUCH AS RAIN...SNOW OR FOG.

NEZ001>004-019>022-054>056-262000-
NEBRASKA PANHANDLE

CITY           SKY/WX    TMP DP  RH WIND       PRES   REMARKS
SCOTTSBLUFF    CLOUDY    62  37  39 SE7       29.92F
ALLIANCE       SUNNY     61  40  45 CALM      29.92F
CHADRON        SUNNY     64  38  38 VRB3      29.91F
GORDON         FAIR      64  34  32 N6        29.92F
KIMBALL        CLOUDY    62  41  45 S9        29.94F
SIDNEY         SUNNY     62  43  49 VRB6      29.94F
$$

NEZ057>060-069>072-079>082-262000-
SOUTHWEST NEBRASKA

CITY           SKY/WX    TMP DP  RH WIND       PRES   REMARKS
NORTH PLATTE   SUNNY     71  43  36 VRB3      29.91F
IMPERIAL       SUNNY     68  45  43 NE9       29.92F
LEXINGTON      SUNNY     70  49  46 CALM      29.90F
MCCOOK         SUNNY     72  46  39 MISG      29.90F
$$

NEZ005>010-023>029-035>040-094-262000-
NORTH CENTRAL NEBRASKA

CITY           SKY/WX    TMP DP  RH WIND       PRES   REMARKS
VALENTINE      SUNNY     69  37  30 NW8       29.91F
AINSWORTH      SUNNY     66  44  43 N10G21    29.91F
BROKEN BOW     SUNNY     70  43  37 N6        29.90F
O`NEILL        SUNNY     68  39  34 N8        29.90S
ORD            SUNNY     70  45  40 N10G17    29.89S
$$

NEZ041-046>049-061>064-073>077-083>087-262000-
SOUTH CENTRAL NEBRASKA

CITY           SKY/WX    TMP DP  RH WIND       PRES   REMARKS
GRAND ISLAND   MOSUNNY   74  50  42 N16       29.87F
AURORA         PTSUNNY   75  44  32 N12       29.86F
HASTINGS       SUNNY     73  48  41 N9        29.88F
HEBRON         SUNNY     79  48  33 N12       29.83S
HOLDREGE       SUNNY     71  46  39 NE10G16   29.89F
KEARNEY *      SUNNY     72  46  40 NE9       29.89F
$$

NEZ011>018-030>034-042>045-262000-
NORTHEAST NEBRASKA

CITY           SKY/WX    TMP DP  RH WIND       PRES   REMARKS
NORFOLK        PTSUNNY   70  47  43 NW12      29.84S
ALBION         CLOUDY    71  48  45 NW7       29.88S
BLAIR          SUNNY     74  55  51 N13       29.81S
FREMONT        MOSUNNY   77  47  35 N8        29.83S
TEKAMAH        MOSUNNY   77  52  41 N15       29.81S
WAYNE          MOSUNNY   73  48  41 N13G21    29.84R
$$

NEZ050>053-065>068-078-088>093-262000-
SOUTHEAST NEBRASKA

CITY           SKY/WX    TMP DP  RH WIND       PRES   REMARKS
LINCOLN        SUNNY     78  51  38 N13       29.83R
OMAHA EPPLEY   MOSUNNY   78  55  44 N18       29.79S
BEATRICE       SUNNY     79  55  44 N12       29.82R
FALLS CITY     MOSUNNY   80  60  50 N8        29.76R
NEBRASKA CITY  MOSUNNY   80  51  36 NE14      29.79R
$$

NEZ044-045-051>053-067-262000-
OMAHA AREA

CITY           SKY/WX    TMP DP  RH WIND       PRES   REMARKS
OMAHA EPPLEY   MOSUNNY   78  55  44 N18       29.79S
BLAIR          SUNNY     74  55  51 N13       29.81S
FREMONT        MOSUNNY   77  47  35 N8        29.83S
MILLARD        SUNNY     78  57  47 N6        29.80F
OFFUTT AFB     SUNNY     77  58  51 N13       29.78F
WAHOO          FAIR      76  47  36 NW15      29.83R
$$




USA.gov is the U.S. government's official web portal to all federal, state and local government web resources and services.